Kinoura — 3FHE5 — position and weather

sailwx.info

Track history (hours):
 
Tides and Currents Weather Stations Pressure Air Temp Water Temp Dewpoint Dewpoint Depression Visibility Wind Speed Wind Dir Waves Ship Positions

Kinoura

Last reported at 2014-Aug-19 19:26 UTC. Time now 2014-Aug-21 02:29 UTC.
Position N 29°07' E 122°39'.

Length 227 m; draft 7 m.

Type: Cargo ship. MMSI: 373041000.

Date/timePositionNaut miles runAvg speedWind from/ knotsBaromVisibWave heightAir tempDewpointWater temp
2014-Aug-19 19:26N 29°07' E 122°39'2411.5
2014-Aug-19 17:22N 29°30' E 122°47'1214.2
2014-Aug-19 16:31N 29°41' E 122°51'3014.3
2014-Aug-19 14:25N 30°10' E 123°02'1411.2
2014-Aug-19 13:09N 30°21' E 122°51'711.4
2014-Aug-19 12:34N 30°21' E 122°43'1211.8
2014-Aug-19 11:33N 30°22' E 122°30'1212.2
2014-Aug-19 10:34N 30°23' E 122°16'1211.4
2014-Aug-19 09:33N 30°23' E 122°02'1010.2
2014-Aug-19 08:33N 30°24' E 121°51'12 8.3
2014-Aug-19 07:04N 30°14' E 121°60'2 0.1
2014-Aug-18 15:16N 30°13' E 122°02'0 0.0
2014-Aug-18 14:22N 30°13' E 122°02'0 0.0
2014-Aug-18 12:10N 30°13' E 122°02'0 0.0
2014-Aug-18 04:16N 30°13' E 122°02'0 0.1
2014-Aug-18 01:31N 30°13' E 122°02'  
2014-Aug-14 09:10N 30°13' E 122°03'1 1.5
2014-Aug-14 08:33N 30°14' E 122°02'2 0.3
2014-Aug-14 01:28N 30°14' E 121°60'10 8.9
2014-Aug-14 00:21N 30°18' E 121°49'5 4.8
2014-Aug-13 23:21N 30°22' E 121°49'7 8.6
2014-Aug-13 22:31N 30°23' E 121°57'7 6.8
2014-Aug-13 21:33N 30°23' E 122°04'1 1.1
2014-Aug-13 20:33N 30°23' E 122°06'3 2.8
2014-Aug-13 19:33N 30°22' E 122°09'1111.1
2014-Aug-13 18:33N 30°22' E 122°22'1212.5
2014-Aug-13 17:33N 30°22' E 122°36'1212.1
2014-Aug-13 16:33N 30°21' E 122°50'  
Track history (hours):
 
Tides and Currents Weather Stations Pressure Air Temp Water Temp Dewpoint Dewpoint Depression Visibility Wind Speed Wind Dir Waves Ship Positions

Kinoura

Last reported at 2014-Aug-19 19:26 UTC. Time now 2014-Aug-21 02:29 UTC.
Position N 29°07' E 122°39'.

Length 227 m; draft 7 m.

Type: Cargo ship. MMSI: 373041000.

Date/timePositionNaut miles runAvg speedWind from/ knotsBaromVisibWave heightAir tempDewpointWater temp
2014-Aug-19 19:26N 29°07' E 122°39'2411.5
2014-Aug-19 17:22N 29°30' E 122°47'1214.2
2014-Aug-19 16:31N 29°41' E 122°51'3014.3
2014-Aug-19 14:25N 30°10' E 123°02'1411.2
2014-Aug-19 13:09N 30°21' E 122°51'711.4
2014-Aug-19 12:34N 30°21' E 122°43'1211.8
2014-Aug-19 11:33N 30°22' E 122°30'1212.2
2014-Aug-19 10:34N 30°23' E 122°16'1211.4
2014-Aug-19 09:33N 30°23' E 122°02'1010.2
2014-Aug-19 08:33N 30°24' E 121°51'12 8.3
2014-Aug-19 07:04N 30°14' E 121°60'2 0.1
2014-Aug-18 15:16N 30°13' E 122°02'0 0.0
2014-Aug-18 14:22N 30°13' E 122°02'0 0.0
2014-Aug-18 12:10N 30°13' E 122°02'0 0.0
2014-Aug-18 04:16N 30°13' E 122°02'0 0.1
2014-Aug-18 01:31N 30°13' E 122°02'  
2014-Aug-14 09:10N 30°13' E 122°03'1 1.5
2014-Aug-14 08:33N 30°14' E 122°02'2 0.3
2014-Aug-14 01:28N 30°14' E 121°60'10 8.9
2014-Aug-14 00:21N 30°18' E 121°49'5 4.8
2014-Aug-13 23:21N 30°22' E 121°49'7 8.6
2014-Aug-13 22:31N 30°23' E 121°57'7 6.8
2014-Aug-13 21:33N 30°23' E 122°04'1 1.1
2014-Aug-13 20:33N 30°23' E 122°06'3 2.8
2014-Aug-13 19:33N 30°22' E 122°09'1111.1
2014-Aug-13 18:33N 30°22' E 122°22'1212.5
2014-Aug-13 17:33N 30°22' E 122°36'1212.1
2014-Aug-13 16:33N 30°21' E 122°50'  

Dump ship's entire track history